Location: San Francisco
(37.7750°N, 122.4180°W)
Time: 23:39:36
(UTC-08:00)

Daily predictions for brighter satellites

Satellite Brightness Start Highest point End
(mag) Time Altitude Azimuth Time Altitude Azimuth Time Altitude Azimuth
Cosmos 1602 3.8 18:21:29 10° S 18:25:18 60° E 18:29:10 10° NNE
Cosmos 1340 2.6 18:21:44 10° N 18:25:30 65° E 18:29:14 10° SSE
COSMO-SKYMED 1 3.0 18:24:19 10° N 18:28:40 71° WNW 18:32:58 10° SSW
ATLAS CENTAUR R/B 3.4 18:24:48 10° S 18:28:40 18° SE 18:30:58 10° E
BREEZE-M DEB (TANK) 4.4 18:27:23 10° NNW 18:30:04 25° NNE 18:35:43 10° E
Cosmos 1741 Rocket 4.0 18:32:10 10° S 18:37:18 62° ESE 18:42:27 10° NNE
Resurs 01 Rocket 2.8 18:33:53 10° ESE 18:37:18 22° ENE 18:40:43 10° NNE
BREEZE-M DEB (TANK) 3.3 18:31:08 10° NW 18:39:39 88° SW 18:42:35 10° SE
NOAA 12 4.1 18:39:14 10° SSE 18:44:32 76° ENE 18:49:52 10° N
GPS 2-04 Rocket1 3.1 18:40:54 10° WSW 18:45:03 59° S 18:48:43 14° E
Cosmos 1140 Rocket 4.0 18:40:36 10° SSW 18:45:41 64° WNW 18:50:49 10° NNE
Cosmos 614 Rocket 4.0 18:41:14 10° SSW 18:46:18 84° WNW 18:51:24 10° NNE
Cosmos 1633 3.2 18:42:49 10° SSW 18:46:28 61° W 18:50:07 10° N
Meteor 1-28 Rocket 4.3 18:42:50 10° N 18:46:32 49° WNW 18:50:13 10° SSW
Meteor 1-11 Rocket 3.8 18:41:36 10° S 18:47:24 86° E 18:53:22 10° N
Genesis I 3.1 18:47:03 10° NNW 18:50:59 76° ENE 18:54:54 10° SE
Cosmos 2333 Rocket 3.3 18:46:40 10° N 18:51:20 25° ENE 18:55:04 14° ESE
OTV 4 1.5 18:49:35 10° SW 18:52:15 31° SSE 18:53:54 18° ESE
FENGYUN 3A 3.9 18:47:25 10° SE 18:52:33 47° ENE 18:57:43 10° N
Okean 1 Rocket 3.1 18:50:39 10° S 18:55:08 88° W 18:59:38 10° N
GEOS 3 Rocket 4.2 18:50:55 10° NE 18:55:45 36° ESE 19:00:36 10° S
Cosmos 1570 Rocket 3.9 18:52:59 10° NNW 18:58:14 73° ENE 19:03:27 10° SSE
Cosmos 1238 Rocket 3.0 18:56:50 10° NNW 18:59:42 52° W 19:02:45 10° S
Cosmos 1025 Rocket 3.2 18:58:47 10° N 19:03:04 51° E 19:07:20 10° SSE
Cosmos 2181 Rocket 4.4 19:00:55 10° NNW 19:07:10 70° W 19:13:28 10° S
Spot 2 Rocket 3.6 19:05:00 10° SE 19:09:52 50° ENE 19:14:46 10° N
Hubble Space Telescope 2.5 19:09:28 10° SW 19:12:33 20° S 19:14:18 16° SE
Cosmos 2074 Rocket 3.9 19:07:30 10° S 19:13:44 77° E 19:20:02 10° N
Meteor 1-5 Rocket 4.3 19:09:17 10° S 19:15:13 76° E 19:21:07 10° NNE
SL-08 ROCKET BODY 4.5 19:09:52 10° S 19:16:02 90° SE 19:22:17 10° N
Cosmos 2082 4.4 19:11:18 10° SSE 19:16:15 31° ESE 19:20:08 15° NE
USA 229 DEB 3.8 19:09:09 10° NNW 19:16:17 65° NE 19:22:57 12° SE
USA 229 3.8 19:09:15 10° NNW 19:16:22 65° NE 19:22:58 13° SE
FengYun 1-2 T 4.1 19:13:35 10° SSE 19:19:03 80° ENE 19:24:35 10° N
SJ-6B 3.5 19:15:29 10° S 19:19:24 56° W 19:23:15 10° NNW
Cosmos 2184 Rocket 3.9 19:13:58 10° S 19:20:17 83° E 19:26:34 10° N
HJ-1C 3.4 19:17:03 10° S 19:20:25 85° WSW 19:23:48 10° NNW
Cosmos 1544 Rocket 3.8 19:18:26 10° SSE 19:22:31 43° E 19:26:37 10° NNE
Cosmos 405 Rocket 3.1 19:18:39 10° N 19:22:31 42° ENE 19:23:51 31° SE
Meteor 2-13 Rocket 4.4 19:18:07 10° S 19:24:01 59° E 19:30:01 10° NNE
H-2A R/B 2.5 19:21:34 10° SSE 19:25:14 65° ENE 19:28:58 10° N
CZ-2D R/B 3.4 19:24:56 33° SE 19:26:13 48° ENE 19:29:55 10° N
Envisat 4.2 19:27:13 23° NE 19:27:13 23° NE 19:30:32 10° NNE
ALOS 2.5 19:24:00 10° S 19:28:38 74° WSW 19:33:20 10° NNW
Cosmos 2297 Rocket 2.5 19:31:57 10° S 19:37:11 40° ESE 19:38:27 35° ENE
Cosmos 2237 Rocket 2.6 19:31:53 10° N 19:37:16 41° ENE 19:38:22 37° E
Cosmos 2333 4.5 19:34:03 10° NNW 19:39:46 71° WSW 19:45:30 10° SSE
Nadezhda 3 Rocket 4.0 19:34:09 10° N 19:40:10 53° E 19:44:37 18° SSE
NOSS 0 Rocket 3.9 19:34:15 10° NNW 19:40:21 61° ENE 19:43:19 31° SE
COSMOS 2428 3.3 19:36:09 10° NNW 19:41:43 58° WSW 19:47:17 10° S
Abrixas rocket 4.1 19:39:06 10° WNW 19:41:54 24° NNW 19:42:43 22° N
Okean 2 3.4 19:37:44 10° N 19:41:56 82° W 19:46:06 10° S
Meteor 1-12 Rocket 4.3 19:38:31 10° S 19:44:20 56° E 19:50:07 10° NNE
NOSS 3-1 (C) 4.3 19:39:23 10° NNW 19:46:46 50° NE 19:49:43 36° ESE
Helios 1A 2.8 19:46:45 66° E 19:46:58 68° ENE 19:51:06 10° N
Cosmos 2341 Rocket 4.1 19:42:37 10° SSE 19:48:47 54° E 19:54:59 10° NNE
Helios 1B rocket 2.3 19:44:41 10° NNE 19:48:52 77° ESE 19:53:00 10° S
OAO 3 Rocket 3.9 19:44:18 10° SW 19:48:52 37° SSE 19:48:59 37° SSE
Cosmos 2219 Rocket 2.1 19:43:44 10° NNW 19:49:22 88° ENE 19:52:36 27° SSE
Cosmos 2154 Rocket 3.9 19:43:27 10° S 19:49:46 75° E 19:56:06 10° N
SAR-Lupe-4 3.8 19:53:32 66° NW 19:53:32 66° NW 19:56:43 10° NNW
Cosmos 2285 Rocket 4.3 19:47:58 10° NNW 19:54:22 70° WSW 20:00:41 10° S
Cosmos 1486 Rocket 3.9 19:49:38 10° S 19:54:54 68° ESE 19:57:37 29° NNE
Cosmos 2227 Rocket 2.0 19:51:56 10° SSW 19:57:35 83° ESE 20:02:44 13° NNE
Cosmos 1455 Rocket 3.0 19:55:33 10° S 19:59:57 85° W 20:04:19 10° N
Atlas Centaur 2 3.6 19:54:52 10° SW 20:00:50 27° SSE 20:01:07 27° SSE
Cosmos 841 Rocket 4.4 20:03:26 10° N 20:06:41 34° NNE 20:06:41 34° NNE
SL-16 R/B 3.5 20:08:00 10° N 20:11:11 27° NNE 20:11:11 27° NNE
Resurs 01 Rocket 3.5 20:09:44 10° SSW 20:13:36 30° W 20:17:28 10° NW
Cosmos 1763 Rocket 3.9 20:13:47 10° NNW 20:17:39 50° N 20:17:39 50° N
Cosmos 962 Rocket 4.4 20:13:38 10° S 20:19:50 85° W 20:26:01 10° N
Meteor 2-8 Rocket 4.4 20:17:29 10° N 20:22:57 70° NNE 20:22:57 70° NNE
GPS 2-04 Rocket1 4.3 20:20:34 10° W 20:23:14 35° WSW 20:23:14 35° WSW
Cosmos 2333 Rocket 3.1 20:30:19 10° NW 20:35:48 46° WSW 20:37:10 39° SW
Cosmos 1980 4.1 20:31:01 10° NNW 20:36:32 58° WSW 20:36:39 57° WSW
NOSS 3-1 (A) 4.4 21:12:25 10° NW 21:19:05 60° W 21:19:05 60° W
Cosmos 2237 Rocket 4.1 21:16:28 10° NW 21:20:16 25° W 21:20:16 25° W
Cosmos 2297 Rocket 4.1 21:16:35 10° WSW 21:20:29 26° WNW 21:20:29 26° WNW
ATLAS 2AS CENTAUR R/B 4.2 21:18:26 10° NNW 21:22:59 32° N 21:22:59 32° N
